contact:dominique.lefevre@mio.osupytheas.fr, maurice.libes@osupytheas.fr
Project:EMSO Ligure-ouest http://www.emso-fr.org/EMSO-France
Sensor Aquadopp, line 13 Serial AQD14315 
DOI : "https://doi.org/10.17882/74513; https://doi.org/10.17882/83244" 
Title:EMSO Ligure Ouest : Data ligne ALBATROSS capteur AQUADOPP - deploiement 2021
Id,Date,Profondeur,Latitude,Longitude,X_East,Y_North,Z_Up,Amplitude_X,Amplitude_Y,Amplitude_Z,Batterie,SoundSpeed,Heading,Pitch,Roll,Pressure,Temperature,Speed,Direction
, , m, degrees North, degrees East, m.s-1, m.s-1,m.s-1, 1, 1, 1, Volt, m.s-1, degree, degree, degree, dbar, degree_C, m.s-1, degree
13,2022-04-30T22:00:00,2400.0,42.79,6.0312,0.033,-0.009,0.005,58.0,54.0,59.0,11.9,1504.8,290.5,-0.3,-0.3,2394.476,13.33,0.034,105.3
13,2022-04-30T22:30:00,2400.0,42.79,6.0312,0.048,-0.007,-0.021,61.0,52.0,54.0,11.9,1504.8,291.8,-0.4,-0.3,2394.507,13.33,0.048,98.3
13,2022-04-30T23:00:00,2400.0,42.79,6.0312,0.031,-0.02,-0.013,60.0,54.0,58.0,11.9,1504.8,282.4,-0.2,-0.4,2394.491,13.33,0.036,122.8
13,2022-04-30T23:30:00,2400.0,42.79,6.0312,0.038,-0.02,-0.017,61.0,55.0,55.0,11.9,1504.8,294.6,-0.1,-0.4,2394.455,13.33,0.042,117.8
13,2022-05-01T00:00:00,2400.0,42.79,6.0312,0.017,-0.001,-0.004,58.0,53.0,55.0,11.9,1504.8,297.5,-0.1,-0.4,2394.422,13.33,0.017,93.4
13,2022-05-01T00:30:00,2400.0,42.79,6.0312,0.022,-0.001,0.017,59.0,54.0,55.0,11.9,1504.8,287.6,-0.2,-0.3,2394.451,13.33,0.022,92.6
13,2022-05-01T01:00:00,2400.0,42.79,6.0312,0.037,-0.018,0.004,61.0,55.0,58.0,11.9,1504.8,274.3,-0.1,-0.4,2394.406,13.33,0.041,115.9
13,2022-05-01T01:30:00,2400.0,42.79,6.0312,0.026,-0.021,-0.006,62.0,52.0,57.0,11.9,1504.8,273.7,-0.2,-0.2,2394.42,13.33,0.033,128.9
13,2022-05-01T02:00:00,2400.0,42.79,6.0312,0.024,-0.005,-0.025,62.0,55.0,55.0,11.9,1504.8,264.3,0.0,-0.4,2394.335,13.33,0.024,101.8
13,2022-05-01T02:30:00,2400.0,42.79,6.0312,0.029,-0.007,-0.016,64.0,56.0,56.0,11.9,1504.8,260.5,-0.1,-0.3,2394.398,13.33,0.029,103.6
13,2022-05-01T03:00:00,2400.0,42.79,6.0312,0.015,0.001,0.0,60.0,55.0,53.0,11.9,1504.8,244.6,0.0,-0.2,2394.414,13.33,0.015,86.2
13,2022-05-01T03:30:00,2400.0,42.79,6.0312,0.017,0.004,-0.022,60.0,53.0,55.0,11.9,1504.8,238.6,0.0,-0.3,2394.377,13.33,0.017,76.8
13,2022-05-01T04:00:00,2400.0,42.79,6.0312,0.027,0.0,-0.03,62.0,54.0,54.0,11.9,1504.8,232.8,-0.1,-0.2,2394.466,13.33,0.026,90.0
13,2022-05-01T04:30:00,2400.0,42.79,6.0312,0.031,-0.01,0.0,61.0,59.0,53.0,11.9,1504.8,254.2,0.0,-0.3,2394.414,13.33,0.032,107.9
13,2022-05-01T05:00:00,2400.0,42.79,6.0312,0.013,0.0,0.019,59.0,53.0,53.0,11.9,1504.8,260.9,-0.1,-0.4,2394.53,13.33,0.013,90.0
13,2022-05-01T05:30:00,2400.0,42.79,6.0312,0.013,0.008,-0.016,59.0,51.0,51.0,11.9,1504.8,261.4,-0.1,-0.3,2394.556,13.33,0.015,58.4
13,2022-05-01T06:00:00,2400.0,42.79,6.0312,0.019,-0.004,-0.007,60.0,56.0,55.0,11.9,1504.8,269.4,-0.2,-0.2,2394.529,13.33,0.019,101.9
13,2022-05-01T06:30:00,2400.0,42.79,6.0312,0.038,0.006,0.015,66.0,55.0,58.0,11.9,1504.8,268.2,-0.1,-0.3,2394.599,13.33,0.038,81.0
13,2022-05-01T07:00:00,2400.0,42.79,6.0312,0.02,-0.013,-0.018,59.0,53.0,54.0,11.9,1504.8,270.4,-0.1,-0.4,2394.576,13.33,0.023,123.0
13,2022-05-01T07:30:00,2400.0,42.79,6.0312,0.011,0.004,-0.026,58.0,52.0,54.0,11.9,1504.8,275.5,-0.3,-0.3,2394.515,13.33,0.011,70.0
13,2022-05-01T08:00:00,2400.0,42.79,6.0312,0.026,0.001,-0.004,59.0,53.0,59.0,11.9,1504.8,275.8,-0.2,-0.3,2394.53,13.33,0.026,87.8
13,2022-05-01T08:30:00,2400.0,42.79,6.0312,0.045,0.004,-0.023,60.0,52.0,53.0,11.9,1504.8,279.3,-0.2,-0.4,2394.517,13.33,0.045,84.9
13,2022-05-01T09:00:00,2400.0,42.79,6.0312,0.045,0.012,-0.013,54.0,49.0,54.0,11.9,1504.8,282.7,-0.4,-0.4,2394.484,13.33,0.046,75.1
13,2022-05-01T09:30:00,2400.0,42.79,6.0312,0.042,-0.014,-0.014,62.0,50.0,56.0,11.9,1504.8,283.3,-0.2,-0.3,2394.501,13.33,0.044,108.4
13,2022-05-01T10:00:00,2400.0,42.79,6.0312,0.017,-0.005,-0.002,59.0,54.0,56.0,11.9,1504.8,283.3,-0.4,-0.4,2394.486,13.33,0.017,106.4
13,2022-05-01T10:30:00,2400.0,42.79,6.0312,0.041,-0.002,0.008,63.0,56.0,56.0,11.8,1504.8,287.4,-0.4,-0.4,2394.446,13.33,0.041,92.8
13,2022-05-01T11:00:00,2400.0,42.79,6.0312,0.033,0.001,0.011,58.0,54.0,54.0,11.9,1504.8,286.5,-0.4,-0.4,2394.41,13.33,0.033,88.3
13,2022-05-01T11:30:00,2400.0,42.79,6.0312,0.018,-0.001,0.003,58.0,54.0,54.0,11.8,1504.8,287.9,-0.4,-0.3,2394.412,13.33,0.018,93.2
13,2022-05-01T12:00:00,2400.0,42.79,6.0312,0.05,0.002,0.004,60.0,52.0,56.0,11.8,1504.8,289.3,-0.3,-0.4,2394.385,13.33,0.05,87.7
13,2022-05-01T12:30:00,2400.0,42.79,6.0312,0.036,0.015,-0.011,62.0,54.0,56.0,11.9,1504.8,292.1,-0.4,-0.4,2394.407,13.33,0.039,67.4
13,2022-05-01T13:00:00,2400.0,42.79,6.0312,0.018,-0.009,-0.003,58.0,54.0,55.0,11.9,1504.8,292.5,-0.3,-0.4,2394.394,13.33,0.02,116.6
13,2022-05-01T13:30:00,2400.0,42.79,6.0312,0.031,0.008,-0.002,60.0,56.0,56.0,11.9,1504.8,294.9,-0.3,-0.3,2394.376,13.33,0.032,75.5
13,2022-05-01T14:00:00,2400.0,42.79,6.0312,0.02,-0.01,-0.002,63.0,52.0,57.0,11.9,1504.8,294.3,-0.3,-0.4,2394.299,13.33,0.022,116.6
13,2022-05-01T14:30:00,2400.0,42.79,6.0312,0.045,-0.015,-0.01,66.0,55.0,53.0,11.9,1504.8,295.5,-0.4,-0.4,2394.324,13.33,0.047,108.4
13,2022-05-01T15:00:00,2400.0,42.79,6.0312,0.03,-0.009,-0.004,59.0,56.0,58.0,11.9,1504.8,294.7,-0.3,-0.4,2394.33,13.33,0.031,106.7
13,2022-05-01T15:30:00,2400.0,42.79,6.0312,0.026,-0.018,-0.014,66.0,55.0,56.0,11.9,1504.8,301.3,-0.2,-0.4,2394.37,13.33,0.031,124.7
13,2022-05-01T16:00:00,2400.0,42.79,6.0312,0.034,-0.011,0.001,59.0,55.0,56.0,11.9,1504.8,299.7,-0.3,-0.3,2394.376,13.33,0.035,107.9
13,2022-05-01T16:30:00,2400.0,42.79,6.0312,0.035,-0.014,0.007,64.0,58.0,57.0,11.9,1504.8,302.6,-0.2,-0.5,2394.42,13.33,0.037,111.8
13,2022-05-01T17:00:00,2400.0,42.79,6.0312,0.04,-0.002,-0.034,64.0,55.0,55.0,11.9,1504.8,303.9,-0.3,-0.4,2394.434,13.33,0.04,92.9
13,2022-05-01T17:30:00,2400.0,42.79,6.0312,0.028,-0.012,-0.025,60.0,50.0,57.0,11.9,1504.8,297.7,-0.3,-0.3,2394.412,13.33,0.03,113.2
13,2022-05-01T18:00:00,2400.0,42.79,6.0312,0.015,-0.011,-0.003,57.0,50.0,57.0,11.9,1504.8,294.0,-0.1,-0.4,2394.454,13.33,0.018,126.3
13,2022-05-01T18:30:00,2400.0,42.79,6.0312,0.037,-0.005,-0.001,64.0,54.0,55.0,11.9,1504.8,297.4,-0.3,-0.3,2394.538,13.33,0.037,97.7
13,2022-05-01T19:00:00,2400.0,42.79,6.0312,0.023,-0.015,-0.018,59.0,54.0,57.0,11.9,1504.8,298.8,-0.2,-0.4,2394.563,13.33,0.027,123.1
13,2022-05-01T19:30:00,2400.0,42.79,6.0312,0.02,-0.024,-0.034,63.0,51.0,55.0,11.9,1504.8,295.4,-0.1,-0.4,2394.514,13.33,0.031,140.2
13,2022-05-01T20:00:00,2400.0,42.79,6.0312,0.015,-0.011,0.011,65.0,54.0,54.0,11.8,1504.8,290.5,-0.2,-0.2,2394.574,13.33,0.018,126.3
13,2022-05-01T20:30:00,2400.0,42.79,6.0312,0.023,-0.023,-0.007,62.0,56.0,52.0,11.9,1504.8,285.0,-0.2,-0.2,2394.553,13.33,0.032,135.0
13,2022-05-01T21:00:00,2400.0,42.79,6.0312,0.0,-0.012,-0.003,62.0,53.0,59.0,11.9,1504.8,281.5,-0.3,-0.3,2394.564,13.33,0.012,180.0
13,2022-05-01T21:30:00,2400.0,42.79,6.0312,-0.002,-0.021,0.022,55.0,51.0,54.0,11.9,1504.8,284.6,-0.1,-0.3,2394.491,13.33,0.021,185.4
